Weather in Sudino

Russia / Yaroslavl Oblast     57°12′21″N   39°17′21″E
temp.,
°C
wind,
m/s
gust,
m/s
humid.,
%
clouds,
%
prec.,
mm/h
press.,
hPa
HPBL,
m
8 march, mon
mon800:00−8wsw358888 0.2 993111
03:00−12w349381 0.2 99364
06:00−12w3495100 0.1 99456
09:00−11nw359593 0.1 996205
12:00−8nw578984 0.0 999498
15:00−8nnw688592 0.1 1002887
18:00−10nw5990100 0.1 1005425
21:00−13nw489593 0.1 1008163
9 march, tue
tue900:00−15nnw379696 0.1 1010150
03:00−20nnw349871 0.1 101262
06:00−22nnw349938 0.0 101457
09:00−20nnw369649 0.0 1016248
12:00−17nnw458884 0.0 1017472
15:00−15nnw468892 0.1 1018593
18:00−20nnw4695100 0.0 1020122
21:00−23nnw359892 0.0 102289
10 march, wed
wed1000:00−24nnw349782 0.0 102475
03:00−27nnw349750 0.0 102650
06:00−28nnw34970 0.0 102742
09:00−25nnw35930 0.0 1028208
12:00−18nw35830 0.0 1028387
15:00−14nw47820 0.0 1028591
18:00−17wnw479242 0.0 1028130
21:00−20nw349866 0.0 102955
11 march, thu
thu1100:00−20nw3310099 0.0 103033
03:00−21nw2310087 0.1 103120
06:00−22wnw239934 0.0 103221
09:00−18wnw359627 0.0 1032147
12:00−12wnw238545 0.0 1032350
15:00−9w238067 0.0 1031530
18:00−13wsw239188 0.0 103021
21:00−16sw239444 0.0 103120
12 march, fri
fri1200:00−17sw34930 0.0 103146
03:00−18sw34910 0.0 103060
06:00−19ssw44860 0.0 102976
09:00−15ssw410780 0.0 1029277
12:00−10s59740 0.0 1028482
15:00−8s610770 0.0 1026628
18:00−10s511860 0.0 1024339
21:00−13s614880 0.0 1024389